Time,TemperatureF,DewpointF,PressureIn,WindDirection,WindDirectionDegrees,WindSpeedMPH,WindSpeedGustMPH,Humidity,HourlyPrecipIn,Conditions,Clouds,dailyrainin,SolarRadiationWatts/m^2,SoftwareType,DateUTC
2013-02-15 00:00:00,33.8,27.4,30.13,NE,54,0.0,0.0,77,0.00,,---,0.00,0.00,VWS V14.01,2013-02-15 05:00:00,
2013-02-15 00:05:00,33.8,27.7,30.13,NE,54,0.0,1.0,78,0.00,,---,0.00,0.00,VWS V14.01,2013-02-15 05:05:00,
2013-02-15 00:10:00,33.8,27.7,30.13,NE,54,0.0,1.0,78,0.00,,---,0.00,0.00,VWS V14.01,2013-02-15 05:10:00,
2013-02-15 00:15:00,33.8,27.7,30.13,NE,54,0.0,1.0,78,0.00,,---,0.00,0.00,VWS V14.01,2013-02-15 05:15:00,
2013-02-15 00:20:00,33.8,27.7,30.13,NE,54,0.0,1.0,78,0.00,,---,0.00,0.00,VWS V14.01,2013-02-15 05:20:00,
2013-02-15 00:25:00,33.7,27.6,30.13,NE,54,0.0,1.0,78,0.00,,---,0.00,0.00,VWS V14.01,2013-02-15 05:25:00,
2013-02-15 00:30:00,33.6,27.5,30.13,NE,54,0.0,1.0,78,0.00,,---,0.00,0.00,VWS V14.01,2013-02-15 05:30:00,
2013-02-15 00:35:00,33.5,27.4,30.13,NE,54,0.0,0.0,78,0.00,,---,0.00,0.00,VWS V14.01,2013-02-15 05:35:00,
2013-02-15 00:40:00,33.3,27.5,30.13,NE,54,0.0,0.0,79,0.00,,---,0.00,0.00,VWS V14.01,2013-02-15 05:40:00,
2013-02-15 00:46:00,33.3,27.5,30.13,NE,54,0.0,0.0,79,0.00,,---,0.00,0.00,VWS V14.01,2013-02-15 05:46:00,
2013-02-15 00:51:00,33.2,27.7,30.13,NE,54,0.0,0.0,80,0.00,,---,0.00,0.00,VWS V14.01,2013-02-15 05:51:00,
2013-02-15 00:56:00,33.2,27.7,30.13,NE,54,0.0,0.0,80,0.00,,---,0.00,0.00,VWS V14.01,2013-02-15 05:56:00,
2013-02-15 01:00:00,33.2,27.7,30.13,NE,54,0.0,0.0,80,0.00,,---,0.00,0.00,VWS V14.01,2013-02-15 06:00:00,
2013-02-15 01:01:00,33.2,27.7,30.13,NE,54,0.0,0.0,80,0.00,,---,0.00,0.00,VWS V14.01,2013-02-15 06:01:00,
2013-02-15 01:06:00,33.2,27.7,30.13,NE,54,0.0,0.0,80,0.00,,---,0.00,0.00,VWS V14.01,2013-02-15 06:06:00,
2013-02-15 01:11:00,33.2,27.7,30.13,NE,54,0.0,0.0,80,0.00,,---,0.00,0.00,VWS V14.01,2013-02-15 06:11:00,
2013-02-15 01:16:00,33.2,28.0,30.13,NE,54,0.0,0.0,81,0.00,,---,0.00,0.00,VWS V14.01,2013-02-15 06:16:00,
2013-02-15 01:21:00,33.2,28.0,30.14,NE,54,0.0,0.0,81,0.00,,---,0.00,0.00,VWS V14.01,2013-02-15 06:21:00,
2013-02-15 01:26:00,33.2,28.0,30.14,NE,54,0.0,0.0,81,0.00,,---,0.00,0.00,VWS V14.01,2013-02-15 06:26:00,
2013-02-15 01:30:00,33.3,28.1,30.14,NE,54,0.0,0.0,81,0.00,,---,0.00,0.00,VWS V14.01,2013-02-15 06:30:00,
2013-02-15 01:31:00,33.2,28.0,30.14,NE,54,0.0,0.0,81,0.00,,---,0.00,0.00,VWS V14.01,2013-02-15 06:31:00,
2013-02-15 01:36:00,33.3,28.1,30.14,NE,54,0.0,0.0,81,0.00,,---,0.00,0.00,VWS V14.01,2013-02-15 06:36:00,
2013-02-15 02:00:00,33.5,28.3,30.14,NE,54,0.0,0.0,81,0.00,,---,0.00,0.00,VWS V14.01,2013-02-15 07:00:00,
2013-02-15 02:30:00,33.5,28.6,30.14,SSW,213,3.0,5.0,82,0.00,,---,0.00,0.00,VWS V14.01,2013-02-15 07:30:00,
2013-02-15 02:51:00,34.0,28.8,30.14,SSW,213,0.0,4.0,81,0.00,,---,0.00,0.00,VWS V14.01,2013-02-15 07:51:00,
2013-02-15 02:56:00,34.1,28.9,30.13,SSW,213,0.0,4.0,81,0.00,,---,0.00,0.00,VWS V14.01,2013-02-15 07:56:00,
2013-02-15 03:00:00,34.0,28.8,30.13,SSW,213,0.0,4.0,81,0.00,,---,0.00,0.00,VWS V14.01,2013-02-15 08:00:00,
2013-02-15 03:01:00,34.0,28.8,30.13,SSW,213,0.0,4.0,81,0.00,,---,0.00,0.00,VWS V14.01,2013-02-15 08:01:00,
2013-02-15 03:06:00,33.9,28.4,30.13,SSW,213,0.0,0.0,80,0.00,,---,0.00,0.00,VWS V14.01,2013-02-15 08:06:00,
2013-02-15 03:11:00,33.9,28.7,30.13,SSW,213,0.0,0.0,81,0.00,,---,0.00,0.00,VWS V14.01,2013-02-15 08:11:00,
2013-02-15 03:16:00,33.8,28.6,30.13,SSW,213,0.0,0.0,81,0.00,,---,0.00,0.00,VWS V14.01,2013-02-15 08:16:00,
2013-02-15 03:21:00,33.7,28.5,30.12,SSW,213,0.0,0.0,81,0.00,,---,0.00,0.00,VWS V14.01,2013-02-15 08:21:00,
2013-02-15 03:26:00,33.7,28.5,30.13,SSW,213,0.0,0.0,81,0.00,,---,0.00,0.00,VWS V14.01,2013-02-15 08:26:00,
2013-02-15 03:30:00,33.6,28.4,30.13,SSW,213,0.0,0.0,81,0.00,,---,0.00,0.00,VWS V14.01,2013-02-15 08:30:00,
2013-02-15 03:31:00,33.6,28.4,30.13,SSW,213,0.0,0.0,81,0.00,,---,0.00,0.00,VWS V14.01,2013-02-15 08:31:00,
2013-02-15 03:37:00,33.5,28.6,30.13,SSW,213,0.0,0.0,82,0.00,,---,0.00,0.00,VWS V14.01,2013-02-15 08:37:00,
2013-02-15 03:42:00,33.5,28.6,30.12,SSW,213,0.0,0.0,82,0.00,,---,0.00,0.00,VWS V14.01,2013-02-15 08:42:00,
2013-02-15 03:47:00,33.4,28.5,30.12,SSW,213,0.0,0.0,82,0.00,,---,0.00,0.00,VWS V14.01,2013-02-15 08:47:00,
2013-02-15 03:52:00,33.4,28.5,30.12,SSW,213,0.0,0.0,82,0.00,,---,0.00,0.00,VWS V14.01,2013-02-15 08:52:00,
2013-02-15 03:57:00,33.4,28.5,30.12,SSW,213,0.0,0.0,82,0.00,,---,0.00,0.00,VWS V14.01,2013-02-15 08:57:00,
2013-02-15 04:00:00,33.3,28.4,30.12,SSW,213,0.0,0.0,82,0.00,,---,0.00,0.00,VWS V14.01,2013-02-15 09:00:00,
2013-02-15 04:02:00,33.3,28.4,30.12,SSW,213,0.0,0.0,82,0.00,,---,0.00,0.00,VWS V14.01,2013-02-15 09:02:00,
2013-02-15 04:07:00,33.2,28.3,30.13,SSW,213,0.0,0.0,82,0.00,,---,0.00,0.00,VWS V14.01,2013-02-15 09:07:00,
2013-02-15 04:13:00,33.0,28.1,30.12,SSW,213,0.0,0.0,82,0.00,,---,0.00,0.00,VWS V14.01,2013-02-15 09:13:00,
2013-02-15 04:18:00,32.8,28.2,30.13,SSW,213,0.0,0.0,83,0.00,,---,0.00,0.00,VWS V14.01,2013-02-15 09:18:00,
2013-02-15 04:23:00,32.7,28.1,30.13,SSW,213,0.0,0.0,83,0.00,,---,0.00,0.00,VWS V14.01,2013-02-15 09:23:00,
2013-02-15 04:28:00,32.6,28.0,30.13,SSW,213,0.0,0.0,83,0.00,,---,0.00,0.00,VWS V14.01,2013-02-15 09:28:00,
2013-02-15 04:30:00,32.5,27.9,30.13,SSW,213,0.0,0.0,83,0.00,,---,0.00,0.00,VWS V14.01,2013-02-15 09:30:00,
2013-02-15 04:33:00,32.5,27.9,30.13,SSW,213,0.0,0.0,83,0.00,,---,0.00,0.00,VWS V14.01,2013-02-15 09:33:00,
2013-02-15 04:38:00,32.3,28.0,30.13,SSW,213,0.0,0.0,84,0.00,,---,0.00,0.00,VWS V14.01,2013-02-15 09:38:00,
2013-02-15 04:43:00,32.1,27.8,30.13,SSW,213,0.0,0.0,84,0.00,,---,0.00,0.00,VWS V14.01,2013-02-15 09:43:00,
2013-02-15 04:48:00,32.1,28.1,30.13,SSW,213,0.0,0.0,85,0.00,,---,0.00,0.00,VWS V14.01,2013-02-15 09:48:00,
2013-02-15 04:54:00,32.0,27.7,30.13,SSW,213,0.0,0.0,84,0.00,,---,0.00,0.00,VWS V14.01,2013-02-15 09:54:00,
2013-02-15 04:59:00,31.9,27.9,30.13,SSW,213,0.0,0.0,85,0.00,,---,0.00,0.00,VWS V14.01,2013-02-15 09:59:00,
2013-02-15 05:00:00,31.8,27.8,30.14,SSW,213,0.0,0.0,85,0.00,,---,0.00,0.00,VWS V14.01,2013-02-15 10:00:00,
2013-02-15 05:04:00,31.7,27.7,30.14,SSW,213,0.0,0.0,85,0.00,,---,0.00,0.00,VWS V14.01,2013-02-15 10:04:00,
2013-02-15 05:09:00,31.6,27.6,30.13,SSW,213,0.0,0.0,85,0.00,,---,0.00,0.00,VWS V14.01,2013-02-15 10:09:00,
2013-02-15 05:14:00,31.4,27.7,30.13,SSW,213,0.0,0.0,86,0.00,,---,0.00,0.00,VWS V14.01,2013-02-15 10:14:00,
2013-02-15 05:19:00,31.4,27.7,30.13,SSW,213,0.0,0.0,86,0.00,,---,0.00,0.00,VWS V14.01,2013-02-15 10:19:00,
2013-02-15 05:24:00,31.4,28.0,30.14,SSW,213,0.0,0.0,87,0.00,,---,0.00,0.00,VWS V14.01,2013-02-15 10:24:00,
2013-02-15 05:29:00,31.3,27.9,30.14,SSW,213,0.0,0.0,87,0.00,,---,0.00,0.00,VWS V14.01,2013-02-15 10:29:00,
2013-02-15 05:30:00,31.3,27.9,30.14,SSW,213,0.0,0.0,87,0.00,,---,0.00,0.00,VWS V14.01,2013-02-15 10:30:00,
2013-02-15 05:35:00,31.3,28.2,30.13,SSW,213,0.0,0.0,88,0.00,,---,0.00,0.00,VWS V14.01,2013-02-15 10:35:00,
2013-02-15 05:40:00,31.4,28.3,30.13,SSW,213,0.0,0.0,88,0.00,,---,0.00,0.00,VWS V14.01,2013-02-15 10:40:00,
2013-02-15 05:45:00,31.4,28.3,30.13,SSW,213,0.0,0.0,88,0.00,,---,0.00,0.00,VWS V14.01,2013-02-15 10:45:00,
2013-02-15 05:50:00,31.4,28.3,30.13,SSW,213,0.0,0.0,88,0.00,,---,0.00,0.00,VWS V14.01,2013-02-15 10:50:00,
2013-02-15 05:55:00,31.4,28.3,30.13,SSW,213,0.0,0.0,88,0.00,,---,0.00,0.00,VWS V14.01,2013-02-15 10:55:00,
2013-02-15 06:00:00,31.3,28.2,30.13,SSW,213,0.0,0.0,88,0.00,,---,0.00,0.00,VWS V14.01,2013-02-15 11:00:00,
2013-02-15 06:05:00,31.3,28.2,30.14,SSW,213,0.0,0.0,88,0.00,,---,0.00,0.00,VWS V14.01,2013-02-15 11:05:00,
2013-02-15 06:10:00,31.2,28.1,30.14,SSW,213,0.0,0.0,88,0.00,,---,0.00,0.00,VWS V14.01,2013-02-15 11:10:00,
2013-02-15 06:16:00,31.1,27.7,30.13,SSW,213,0.0,0.0,87,0.00,,---,0.00,0.00,VWS V14.01,2013-02-15 11:16:00,
2013-02-15 06:21:00,30.9,27.8,30.14,SSW,213,0.0,0.0,88,0.00,,---,0.00,0.00,VWS V14.01,2013-02-15 11:21:00,
2013-02-15 06:26:00,30.8,27.7,30.13,SSW,213,0.0,0.0,88,0.00,,---,0.00,0.00,VWS V14.01,2013-02-15 11:26:00,
2013-02-15 06:30:00,30.8,27.7,30.13,SSW,213,0.0,0.0,88,0.00,,---,0.00,0.00,VWS V14.01,2013-02-15 11:30:00,
2013-02-15 06:31:00,30.8,27.7,30.13,SSW,213,0.0,0.0,88,0.00,,---,0.00,0.00,VWS V14.01,2013-02-15 11:31:00,
2013-02-15 06:36:00,30.7,27.6,30.14,SSW,213,0.0,0.0,88,0.00,,---,0.00,0.00,VWS V14.01,2013-02-15 11:36:00,
2013-02-15 06:41:00,30.6,27.5,30.14,SSW,213,0.0,0.0,88,0.00,,---,0.00,0.00,VWS V14.01,2013-02-15 11:41:00,
2013-02-15 06:46:00,30.4,27.0,30.14,SSW,213,0.0,0.0,87,0.00,,---,0.00,0.00,VWS V14.01,2013-02-15 11:46:00,
2013-02-15 06:51:00,30.2,27.1,30.14,SSW,213,0.0,0.0,88,0.00,,---,0.00,0.00,VWS V14.01,2013-02-15 11:51:00,
2013-02-15 06:57:00,30.1,27.0,30.14,SSW,213,0.0,0.0,88,0.00,,---,0.00,0.00,VWS V14.01,2013-02-15 11:57:00,
2013-02-15 07:00:00,30.0,26.9,30.14,SSW,213,0.0,0.0,88,0.00,,---,0.00,0.00,VWS V14.01,2013-02-15 12:00:00,
2013-02-15 07:02:00,30.0,26.9,30.14,SSW,213,0.0,0.0,88,0.00,,---,0.00,0.00,VWS V14.01,2013-02-15 12:02:00,
2013-02-15 07:07:00,29.9,27.1,30.14,SSW,213,0.0,0.0,89,0.00,,---,0.00,0.00,VWS V14.01,2013-02-15 12:07:00,
2013-02-15 07:12:00,30.0,27.2,30.14,SSW,213,0.0,0.0,89,0.00,,---,0.00,0.00,VWS V14.01,2013-02-15 12:12:00,
2013-02-15 07:17:00,29.9,27.1,30.15,SSW,213,0.0,0.0,89,0.00,,---,0.00,5.00,VWS V14.01,2013-02-15 12:17:00,
2013-02-15 07:22:00,29.9,27.1,30.15,SSW,213,0.0,0.0,89,0.00,,---,0.00,7.00,VWS V14.01,2013-02-15 12:22:00,
2013-02-15 07:27:00,29.9,27.1,30.15,SSW,213,0.0,0.0,89,0.00,,---,0.00,9.00,VWS V14.01,2013-02-15 12:27:00,
2013-02-15 07:30:00,29.8,27.0,30.15,SSW,213,0.0,0.0,89,0.00,,---,0.00,11.00,VWS V14.01,2013-02-15 12:30:00,
2013-02-15 07:32:00,29.8,27.0,30.15,SSW,213,0.0,0.0,89,0.00,,---,0.00,11.00,VWS V14.01,2013-02-15 12:32:00,
2013-02-15 07:38:00,29.7,26.9,30.16,SSW,213,0.0,0.0,89,0.00,,---,0.00,14.00,VWS V14.01,2013-02-15 12:38:00,
2013-02-15 07:43:00,29.6,26.8,30.16,SSW,213,0.0,0.0,89,0.00,,---,0.00,16.00,VWS V14.01,2013-02-15 12:43:00,
2013-02-15 07:48:00,29.5,26.7,30.16,SSW,213,0.0,1.0,89,0.00,,---,0.00,18.00,VWS V14.01,2013-02-15 12:48:00,
2013-02-15 07:53:00,29.3,26.5,30.16,SW,214,0.0,1.0,89,0.00,,---,0.00,26.00,VWS V14.01,2013-02-15 12:53:00,
2013-02-15 07:58:00,29.2,26.4,30.16,SW,214,0.0,1.0,89,0.00,,---,0.00,23.00,VWS V14.01,2013-02-15 12:58:00,
2013-02-15 08:00:00,29.0,26.2,30.16,SW,214,0.0,1.0,89,0.00,,---,0.00,23.00,VWS V14.01,2013-02-15 13:00:00,
2013-02-15 08:03:00,29.0,26.2,30.16,SW,214,0.0,0.0,89,0.00,,---,0.00,23.00,VWS V14.01,2013-02-15 13:03:00,
2013-02-15 08:08:00,28.9,26.1,30.16,SW,214,0.0,0.0,89,0.00,,---,0.00,25.00,VWS V14.01,2013-02-15 13:08:00,
2013-02-15 08:13:00,28.9,26.3,30.17,SW,214,0.0,0.0,90,0.00,,---,0.00,26.00,VWS V14.01,2013-02-15 13:13:00,
2013-02-15 08:19:00,28.9,26.3,30.17,SW,214,0.0,0.0,90,0.00,,---,0.00,26.00,VWS V14.01,2013-02-15 13:19:00,
2013-02-15 08:24:00,28.9,26.3,30.17,SW,214,0.0,0.0,90,0.00,,---,0.00,28.00,VWS V14.01,2013-02-15 13:24:00,
2013-02-15 08:29:00,28.9,26.3,30.17,SW,214,0.0,0.0,90,0.00,,---,0.00,30.00,VWS V14.01,2013-02-15 13:29:00,
2013-02-15 08:30:00,29.0,26.4,30.17,SW,214,0.0,0.0,90,0.00,,---,0.00,30.00,VWS V14.01,2013-02-15 13:30:00,
2013-02-15 08:34:00,29.0,26.7,30.17,SW,214,0.0,0.0,91,0.00,,---,0.00,30.00,VWS V14.01,2013-02-15 13:34:00,
2013-02-15 08:39:00,29.2,26.9,30.17,SW,214,0.0,0.0,91,0.00,,---,0.00,32.00,VWS V14.01,2013-02-15 13:39:00,
2013-02-15 08:44:00,29.6,27.6,30.17,SW,214,0.0,0.0,92,0.00,,---,0.00,33.00,VWS V14.01,2013-02-15 13:44:00,
2013-02-15 08:49:00,30.1,28.1,30.18,SW,214,0.0,0.0,92,0.00,,---,0.00,51.00,VWS V14.01,2013-02-15 13:49:00,
2013-02-15 08:54:00,30.6,28.8,30.17,SSW,210,1.0,3.0,93,0.00,,---,0.00,132.00,VWS V14.01,2013-02-15 13:54:00,
2013-02-15 09:00:00,31.3,29.5,30.18,SSW,199,0.0,3.0,93,0.00,,---,0.00,206.00,VWS V14.01,2013-02-15 14:00:00,
2013-02-15 09:05:00,32.3,30.8,30.17,SSW,211,0.0,4.0,94,0.00,,---,0.00,204.00,VWS V14.01,2013-02-15 14:05:00,
2013-02-15 09:10:00,33.2,31.4,30.17,SSW,211,0.0,4.0,93,0.00,,---,0.00,306.00,VWS V14.01,2013-02-15 14:10:00,
2013-02-15 09:15:00,34.7,32.6,30.17,SSW,207,4.0,6.0,92,0.00,,---,0.00,325.00,VWS V14.01,2013-02-15 14:15:00,
2013-02-15 09:20:00,36.3,33.7,30.17,SSW,212,4.0,6.0,90,0.00,,---,0.00,343.00,VWS V14.01,2013-02-15 14:20:00,
2013-02-15 09:25:00,37.7,33.9,30.17,West,259,2.0,6.0,86,0.00,,---,0.00,359.00,VWS V14.01,2013-02-15 14:25:00,
2013-02-15 09:30:00,38.7,33.7,30.17,SW,221,0.0,6.0,82,0.00,,---,0.00,373.00,VWS V14.01,2013-02-15 14:30:00,
2013-02-15 09:35:00,39.7,34.0,30.17,SW,217,0.0,4.0,80,0.00,,---,0.00,385.00,VWS V14.01,2013-02-15 14:35:00,
2013-02-15 09:40:00,40.4,34.1,30.17,South,185,0.0,5.0,78,0.00,,---,0.00,401.00,VWS V14.01,2013-02-15 14:40:00,
2013-02-15 09:46:00,40.9,33.9,30.17,SSW,205,0.0,7.0,76,0.00,,---,0.00,415.00,VWS V14.01,2013-02-15 14:46:00,
2013-02-15 09:51:00,41.6,34.3,30.17,South,181,4.0,7.0,75,0.00,,---,0.00,429.00,VWS V14.01,2013-02-15 14:51:00,
2013-02-15 09:56:00,42.2,34.5,30.17,South,181,4.0,7.0,74,0.00,,---,0.00,439.00,VWS V14.01,2013-02-15 14:56:00,
2013-02-15 10:00:00,42.8,34.4,30.16,SW,228,0.0,7.0,72,0.00,,---,0.00,459.00,VWS V14.01,2013-02-15 15:00:00,
2013-02-15 10:01:00,42.7,34.7,30.16,SW,218,4.0,7.0,73,0.00,,---,0.00,457.00,VWS V14.01,2013-02-15 15:01:00,
2013-02-15 10:06:00,43.4,35.0,30.16,SW,217,0.0,7.0,72,0.00,,---,0.00,471.00,VWS V14.01,2013-02-15 15:06:00,
2013-02-15 10:11:00,44.1,35.3,30.16,SW,231,0.0,7.0,71,0.00,,---,0.00,480.00,VWS V14.01,2013-02-15 15:11:00,
2013-02-15 10:16:00,44.9,35.4,30.16,WSW,254,0.0,7.0,69,0.00,,---,0.00,490.00,VWS V14.01,2013-02-15 15:16:00,
2013-02-15 10:21:00,45.6,35.3,30.16,SW,219,0.0,9.0,67,0.00,,---,0.00,503.00,VWS V14.01,2013-02-15 15:21:00,
2013-02-15 10:27:00,46.3,35.6,30.16,West,277,0.0,9.0,66,0.00,,---,0.00,512.00,VWS V14.01,2013-02-15 15:27:00,
2013-02-15 10:30:00,46.8,34.9,30.16,SSE,158,3.0,9.0,63,0.00,,---,0.00,526.00,VWS V14.01,2013-02-15 15:30:00,
2013-02-15 10:32:00,46.8,35.3,30.16,SSE,165,5.0,9.0,64,0.00,,---,0.00,526.00,VWS V14.01,2013-02-15 15:32:00,
2013-02-15 10:37:00,47.4,35.5,30.15,SW,220,1.0,5.0,63,0.00,,---,0.00,524.00,VWS V14.01,2013-02-15 15:37:00,
2013-02-15 10:42:00,47.9,35.5,30.15,SW,231,2.0,5.0,62,0.00,,---,0.00,547.00,VWS V14.01,2013-02-15 15:42:00,
2013-02-15 10:47:00,48.1,35.7,30.15,SW,215,0.0,5.0,62,0.00,,---,0.00,508.00,VWS V14.01,2013-02-15 15:47:00,
2013-02-15 10:52:00,47.9,34.7,30.15,WSW,242,0.0,6.0,60,0.00,,---,0.00,559.00,VWS V14.01,2013-02-15 15:52:00,
2013-02-15 10:57:00,48.2,35.8,30.15,SSE,168,2.0,6.0,62,0.00,,---,0.00,577.00,VWS V14.01,2013-02-15 15:57:00,
2013-02-15 11:00:00,48.6,35.4,30.15,SW,214,0.0,7.0,60,0.00,,---,0.00,582.00,VWS V14.01,2013-02-15 16:00:00,
2013-02-15 11:02:00,48.7,35.5,30.15,WSW,246,2.0,2.0,60,0.00,,---,0.00,587.00,VWS V14.01,2013-02-15 16:02:00,
2013-02-15 11:08:00,49.3,35.6,30.15,NW,312,0.0,7.0,59,0.00,,---,0.00,598.00,VWS V14.01,2013-02-15 16:08:00,
2013-02-15 11:13:00,49.8,35.2,30.14,SSW,211,3.0,8.0,57,0.00,,---,0.00,603.00,VWS V14.01,2013-02-15 16:13:00,
2013-02-15 11:18:00,50.1,35.0,30.14,SSW,200,4.0,10.0,56,0.00,,---,0.00,617.00,VWS V14.01,2013-02-15 16:18:00,
2013-02-15 11:23:00,50.2,34.7,30.14,SSW,211,0.0,12.0,55,0.00,,---,0.00,631.00,VWS V14.01,2013-02-15 16:23:00,
2013-02-15 11:28:00,50.5,34.5,30.14,SW,214,6.0,12.0,54,0.00,,---,0.00,677.00,VWS V14.01,2013-02-15 16:28:00,
2013-02-15 11:30:00,50.5,34.5,30.13,South,177,4.0,12.0,54,0.00,,---,0.00,731.00,VWS V14.01,2013-02-15 16:30:00,
2013-02-15 11:33:00,50.6,34.6,30.13,South,190,11.0,13.0,54,0.00,,---,0.00,700.00,VWS V14.01,2013-02-15 16:33:00,
2013-02-15 11:38:00,50.8,34.8,30.13,South,191,2.0,13.0,54,0.00,,---,0.00,661.00,VWS V14.01,2013-02-15 16:38:00,
2013-02-15 11:44:00,51.1,34.1,30.13,SW,225,5.0,15.0,52,0.00,,---,0.00,712.00,VWS V14.01,2013-02-15 16:44:00,
2013-02-15 11:49:00,51.0,33.5,30.13,SW,233,6.0,15.0,51,0.00,,---,0.00,759.00,VWS V14.01,2013-02-15 16:49:00,
2013-02-15 11:54:00,51.3,33.8,30.12,SW,236,5.0,15.0,51,0.00,,---,0.00,752.00,VWS V14.01,2013-02-15 16:54:00,
2013-02-15 11:59:00,51.5,34.0,30.12,South,173,0.0,15.0,51,0.00,,---,0.00,710.00,VWS V14.01,2013-02-15 16:59:00,
2013-02-15 12:00:00,51.8,33.8,30.12,SE,142,4.0,15.0,50,0.00,,---,0.00,777.00,VWS V14.01,2013-02-15 17:00:00,
2013-02-15 12:04:00,52.0,34.0,30.12,SSW,198,0.0,10.0,50,0.00,,---,0.00,759.00,VWS V14.01,2013-02-15 17:04:00,
2013-02-15 12:09:00,52.4,32.8,30.12,WSW,245,4.0,10.0,47,0.00,,---,0.00,759.00,VWS V14.01,2013-02-15 17:09:00,
2013-02-15 12:14:00,52.6,32.4,30.11,West,259,12.0,12.0,46,0.00,,---,0.00,722.00,VWS V14.01,2013-02-15 17:14:00,
2013-02-15 12:19:00,52.6,31.9,30.11,West,270,1.0,12.0,45,0.00,,---,0.00,807.00,VWS V14.01,2013-02-15 17:19:00,
2013-02-15 12:25:00,53.0,32.2,30.11,SW,217,6.0,12.0,45,0.00,,---,0.00,338.00,VWS V14.01,2013-02-15 17:25:00,
2013-02-15 12:30:00,53.2,31.3,30.10,SSE,161,7.0,12.0,43,0.00,,---,0.00,784.00,VWS V14.01,2013-02-15 17:30:00,
2013-02-15 12:35:00,53.2,31.9,30.10,SW,235,10.0,11.0,44,0.00,,---,0.00,791.00,VWS V14.01,2013-02-15 17:35:00,
2013-02-15 12:40:00,52.8,32.1,30.09,South,175,3.0,11.0,45,0.00,,---,0.00,455.00,VWS V14.01,2013-02-15 17:40:00,
2013-02-15 12:45:00,52.9,31.6,30.09,WSW,254,3.0,11.0,44,0.00,,---,0.00,371.00,VWS V14.01,2013-02-15 17:45:00,
2013-02-15 12:50:00,52.3,31.0,30.09,SW,217,3.0,11.0,44,0.00,,---,0.00,135.00,VWS V14.01,2013-02-15 17:50:00,
2013-02-15 12:55:00,51.7,31.1,30.08,SW,227,0.0,11.0,45,0.00,,---,0.00,156.00,VWS V14.01,2013-02-15 17:55:00,
2013-02-15 13:00:00,51.7,32.1,30.09,SW,227,10.0,13.0,47,0.00,,---,0.00,809.00,VWS V14.01,2013-02-15 18:00:00,
2013-02-15 13:06:00,51.7,30.5,30.08,WSW,248,8.0,8.0,44,0.00,,---,0.00,865.00,VWS V14.01,2013-02-15 18:06:00,
2013-02-15 13:11:00,51.7,29.9,30.08,WSW,244,6.0,10.0,43,0.00,,---,0.00,153.00,VWS V14.01,2013-02-15 18:11:00,
2013-02-15 13:16:00,51.2,28.9,30.08,WSW,240,6.0,11.0,42,0.00,,---,0.00,139.00,VWS V14.01,2013-02-15 18:16:00,
2013-02-15 13:21:00,51.3,29.0,30.07,SW,222,3.0,11.0,42,0.00,,---,0.00,230.00,VWS V14.01,2013-02-15 18:21:00,
2013-02-15 13:26:00,52.2,30.4,30.07,NW,311,5.0,13.0,43,0.00,,---,0.00,821.00,VWS V14.01,2013-02-15 18:26:00,
2013-02-15 13:30:00,53.2,29.5,30.07,South,171,4.0,13.0,40,0.00,,---,0.00,740.00,VWS V14.01,2013-02-15 18:30:00,
2013-02-15 13:31:00,53.0,29.3,30.07,SW,221,0.0,13.0,40,0.00,,---,0.00,740.00,VWS V14.01,2013-02-15 18:31:00,
2013-02-15 13:36:00,54.1,30.3,30.06,NW,319,2.0,10.0,40,0.00,,---,0.00,710.00,VWS V14.01,2013-02-15 18:36:00,
2013-02-15 13:41:00,54.5,30.7,30.07,SW,236,4.0,10.0,40,0.00,,---,0.00,756.00,VWS V14.01,2013-02-15 18:41:00,
2013-02-15 13:46:00,55.1,30.6,30.06,WSW,243,4.0,10.0,39,0.00,,---,0.00,745.00,VWS V14.01,2013-02-15 18:46:00,
2013-02-15 13:52:00,54.9,29.1,30.06,SSW,209,2.0,10.0,37,0.00,,---,0.00,185.00,VWS V14.01,2013-02-15 18:52:00,
2013-02-15 13:57:00,54.4,29.3,30.06,South,175,0.0,11.0,38,0.00,,---,0.00,120.00,VWS V14.01,2013-02-15 18:57:00,
2013-02-15 14:00:00,53.6,29.3,30.06,South,186,3.0,11.0,39,0.00,,---,0.00,229.00,VWS V14.01,2013-02-15 19:00:00,
2013-02-15 14:02:00,53.6,28.6,30.06,SW,215,3.0,11.0,38,0.00,,---,0.00,229.00,VWS V14.01,2013-02-15 19:02:00,
2013-02-15 14:07:00,53.0,30.5,30.05,South,178,6.0,9.0,42,0.00,,---,0.00,216.00,VWS V14.01,2013-02-15 19:07:00,
2013-02-15 14:12:00,52.6,30.8,30.05,SSW,212,3.0,9.0,43,0.00,,---,0.00,241.00,VWS V14.01,2013-02-15 19:12:00,
2013-02-15 14:17:00,52.4,30.0,30.05,South,173,0.0,12.0,42,0.00,,---,0.00,232.00,VWS V14.01,2013-02-15 19:17:00,
2013-02-15 14:22:00,52.3,31.0,30.05,SSE,147,3.0,12.0,44,0.00,,---,0.00,406.00,VWS V14.01,2013-02-15 19:22:00,
2013-02-15 14:27:00,52.3,32.2,30.05,South,171,4.0,12.0,46,0.00,,---,0.00,179.00,VWS V14.01,2013-02-15 19:27:00,
2013-02-15 14:30:00,52.3,31.6,30.05,South,183,2.0,12.0,45,0.00,,---,0.00,246.00,VWS V14.01,2013-02-15 19:30:00,
2013-02-15 14:32:00,52.3,31.6,30.04,SSE,164,3.0,5.0,45,0.00,,---,0.00,195.00,VWS V14.01,2013-02-15 19:32:00,
2013-02-15 14:37:00,52.3,31.6,30.04,SW,219,1.0,6.0,45,0.00,,---,0.00,176.00,VWS V14.01,2013-02-15 19:37:00,
2013-02-15 14:43:00,52.3,32.2,30.04,South,174,0.0,6.0,46,0.00,,---,0.00,102.00,VWS V14.01,2013-02-15 19:43:00,
2013-02-15 14:48:00,52.1,29.1,30.04,WSW,246,0.0,11.0,41,0.00,,---,0.00,116.00,VWS V14.01,2013-02-15 19:48:00,
2013-02-15 14:53:00,52.0,29.0,30.03,WSW,240,1.0,11.0,41,0.00,,---,0.00,142.00,VWS V14.01,2013-02-15 19:53:00,
2013-02-15 14:58:00,51.9,28.4,30.03,SSW,206,2.0,11.0,40,0.00,,---,0.00,105.00,VWS V14.01,2013-02-15 19:58:00,
2013-02-15 15:00:00,51.7,29.4,30.03,SE,134,0.0,11.0,42,0.00,,---,0.00,90.00,VWS V14.01,2013-02-15 20:00:00,
2013-02-15 15:03:00,51.7,29.4,30.03,SE,134,0.0,0.0,42,0.00,,---,0.00,90.00,VWS V14.01,2013-02-15 20:03:00,
2013-02-15 15:08:00,51.6,31.0,30.03,SE,144,0.0,6.0,45,0.00,,---,0.00,77.00,VWS V14.01,2013-02-15 20:08:00,
2013-02-15 15:13:00,51.5,30.3,30.03,SSW,212,3.0,6.0,44,0.00,,---,0.00,83.00,VWS V14.01,2013-02-15 20:13:00,
2013-02-15 15:18:00,51.3,30.7,30.03,South,186,0.0,7.0,45,0.00,,---,0.00,88.00,VWS V14.01,2013-02-15 20:18:00,
2013-02-15 15:23:00,51.2,30.6,30.02,West,261,3.0,8.0,45,0.00,,---,0.00,65.00,VWS V14.01,2013-02-15 20:23:00,
2013-02-15 15:28:00,50.9,30.3,30.03,SE,136,1.0,13.0,45,0.00,,---,0.00,47.00,VWS V14.01,2013-02-15 20:28:00,
2013-02-15 15:30:00,50.7,30.7,30.02,SW,222,0.0,13.0,46,0.00,,---,0.00,46.00,VWS V14.01,2013-02-15 20:30:00,
2013-02-15 15:34:00,50.6,30.6,30.02,SW,232,2.0,4.0,46,0.00,,---,0.00,44.00,VWS V14.01,2013-02-15 20:34:00,
2013-02-15 15:39:00,50.5,31.0,30.02,South,172,3.0,5.0,47,0.00,,---,0.00,39.00,VWS V14.01,2013-02-15 20:39:00,
2013-02-15 15:44:00,50.3,31.4,30.02,WSW,253,4.0,5.0,48,0.00,,---,0.00,40.00,VWS V14.01,2013-02-15 20:44:00,
2013-02-15 15:49:00,50.1,31.7,30.03,SSW,198,0.0,8.0,49,0.00,,---,0.00,33.00,VWS V14.01,2013-02-15 20:49:00,
2013-02-15 15:54:00,50.0,31.6,30.03,WSW,240,0.0,8.0,49,0.00,,---,0.00,39.00,VWS V14.01,2013-02-15 20:54:00,
2013-02-15 15:59:00,49.8,31.9,30.03,South,186,0.0,9.0,50,0.00,,---,0.00,37.00,VWS V14.01,2013-02-15 20:59:00,
2013-02-15 16:00:00,49.6,32.2,30.02,SSE,153,0.0,9.0,51,0.00,,---,0.00,39.00,VWS V14.01,2013-02-15 21:00:00,
2013-02-15 16:04:00,49.5,32.6,30.02,SW,221,2.0,11.0,52,0.00,,---,0.00,42.00,VWS V14.01,2013-02-15 21:04:00,
2013-02-15 16:09:00,49.2,32.8,30.03,SSE,158,1.0,11.0,53,0.00,,---,0.00,25.00,VWS V14.01,2013-02-15 21:09:00,
2013-02-15 16:14:00,48.8,32.9,30.03,SSW,200,0.0,11.0,54,0.00,,---,0.00,25.00,VWS V14.01,2013-02-15 21:14:00,
2013-02-15 16:19:00,48.6,33.2,30.03,South,184,0.0,11.0,55,0.00,,---,0.00,30.00,VWS V14.01,2013-02-15 21:19:00,
2013-02-15 16:25:00,48.4,33.0,30.03,SSW,205,4.0,11.0,55,0.00,,---,0.00,18.00,VWS V14.01,2013-02-15 21:25:00,
2013-02-15 16:30:00,48.1,32.7,30.03,SSW,207,0.0,11.0,55,0.00,,---,0.00,16.00,VWS V14.01,2013-02-15 21:30:00,
2013-02-15 16:35:00,48.0,33.1,30.03,South,169,1.0,5.0,56,0.00,,---,0.00,16.00,VWS V14.01,2013-02-15 21:35:00,
2013-02-15 16:40:00,47.8,32.9,30.03,SW,232,2.0,5.0,56,0.00,,---,0.00,18.00,VWS V14.01,2013-02-15 21:40:00,
2013-02-15 16:45:00,47.7,33.2,30.04,SSW,198,0.0,6.0,57,0.00,,---,0.00,30.00,VWS V14.01,2013-02-15 21:45:00,
2013-02-15 16:50:00,47.6,33.1,30.03,SSE,161,0.0,6.0,57,0.00,,---,0.00,28.00,VWS V14.01,2013-02-15 21:50:00,
2013-02-15 16:55:00,47.6,33.1,30.03,South,190,0.0,6.0,57,0.00,,---,0.00,39.00,VWS V14.01,2013-02-15 21:55:00,
2013-02-15 17:00:00,47.6,33.1,30.03,South,179,0.0,6.0,57,0.00,,---,0.00,42.00,VWS V14.01,2013-02-15 22:00:00,
2013-02-15 17:05:00,47.6,33.1,30.03,South,179,0.0,1.0,57,0.00,,---,0.00,28.00,VWS V14.01,2013-02-15 22:05:00,
2013-02-15 17:10:00,47.6,33.1,30.03,SSE,165,0.0,5.0,57,0.00,,---,0.00,56.00,VWS V14.01,2013-02-15 22:10:00,
2013-02-15 17:15:00,47.6,33.1,30.03,SSE,165,0.0,5.0,57,0.00,,---,0.00,35.00,VWS V14.01,2013-02-15 22:15:00,
2013-02-15 17:20:00,47.7,33.7,30.03,SSW,197,0.0,5.0,58,0.00,,---,0.00,19.00,VWS V14.01,2013-02-15 22:20:00,
2013-02-15 17:26:00,47.6,33.6,30.04,SSW,209,0.0,5.0,58,0.00,,---,0.00,14.00,VWS V14.01,2013-02-15 22:26:00,
2013-02-15 17:30:00,47.4,34.2,30.04,NW,310,3.0,5.0,60,0.00,,---,0.00,19.00,VWS V14.01,2013-02-15 22:30:00,
2013-02-15 17:31:00,47.4,33.8,30.03,WNW,289,1.0,5.0,59,0.00,,---,0.00,19.00,VWS V14.01,2013-02-15 22:31:00,
2013-02-15 17:36:00,47.3,35.0,30.04,NW,321,2.0,5.0,62,0.00,,---,0.00,18.00,VWS V14.01,2013-02-15 22:36:00,
2013-02-15 17:41:00,47.0,35.5,30.04,WNW,298,4.0,10.0,64,0.00,,---,0.00,16.00,VWS V14.01,2013-02-15 22:41:00,
2013-02-15 17:46:00,46.5,35.4,30.05,West,277,0.0,10.0,65,0.00,,---,0.00,11.00,VWS V14.01,2013-02-15 22:46:00,
2013-02-15 17:51:00,46.1,35.4,30.05,NW,304,3.0,10.0,66,0.00,,---,0.00,5.00,VWS V14.01,2013-02-15 22:51:00,
2013-02-15 17:56:00,45.8,35.8,30.05,NW,308,1.0,10.0,68,0.00,,---,0.00,0.00,VWS V14.01,2013-02-15 22:56:00,
2013-02-15 18:00:00,45.3,35.7,30.06,NW,307,5.0,10.0,69,0.00,,---,0.00,0.00,VWS V14.01,2013-02-15 23:00:00,
2013-02-15 18:01:00,45.4,35.8,30.06,WNW,296,0.0,10.0,69,0.00,,---,0.00,0.00,VWS V14.01,2013-02-15 23:01:00,
2013-02-15 18:06:00,45.1,35.9,30.06,WNW,300,7.0,8.0,70,0.00,,---,0.00,0.00,VWS V14.01,2013-02-15 23:06:00,
2013-02-15 18:12:00,44.6,35.8,30.06,WNW,292,2.0,11.0,71,0.00,,---,0.00,0.00,VWS V14.01,2013-02-15 23:12:00,
2013-02-15 18:17:00,44.3,35.9,30.06,NW,319,2.0,11.0,72,0.00,,---,0.00,0.00,VWS V14.01,2013-02-15 23:17:00,
2013-02-15 18:22:00,43.8,35.4,30.06,WSW,255,10.0,11.0,72,0.00,,---,0.00,0.00,VWS V14.01,2013-02-15 23:22:00,
2013-02-15 18:27:00,43.2,35.1,30.07,West,263,2.0,14.0,73,0.00,,---,0.00,0.00,VWS V14.01,2013-02-15 23:27:00,
2013-02-15 18:30:00,42.6,35.2,30.07,WNW,299,4.0,14.0,75,0.00,,---,0.00,0.00,VWS V14.01,2013-02-15 23:30:00,
2013-02-15 18:32:00,42.6,35.2,30.07,NW,321,5.0,14.0,75,0.00,,---,0.00,0.00,VWS V14.01,2013-02-15 23:32:00,
2013-02-15 18:37:00,41.8,34.8,30.08,WNW,298,5.0,10.0,76,0.00,,---,0.00,0.00,VWS V14.01,2013-02-15 23:37:00,
2013-02-15 18:42:00,40.9,34.3,30.08,West,266,6.0,10.0,77,0.00,,---,0.00,0.00,VWS V14.01,2013-02-15 23:42:00,
2013-02-15 18:47:00,40.2,33.9,30.08,WNW,284,2.0,11.0,78,0.00,,---,0.00,0.00,VWS V14.01,2013-02-15 23:47:00,
2013-02-15 18:52:00,39.6,33.3,30.08,WNW,302,3.0,11.0,78,0.00,,---,0.00,0.00,VWS V14.01,2013-02-15 23:52:00,
2013-02-15 18:57:00,39.2,33.2,30.08,WNW,302,2.0,11.0,79,0.00,,---,0.00,0.00,VWS V14.01,2013-02-15 23:57:00,
2013-02-15 19:00:00,38.8,32.9,30.09,WNW,302,3.0,11.0,79,0.00,,---,0.00,0.00,VWS V14.01,2013-02-16 00:00:00,
2013-02-15 19:02:00,38.8,32.9,30.09,WNW,301,4.0,4.0,79,0.00,,---,0.00,0.00,VWS V14.01,2013-02-16 00:02:00,
2013-02-15 19:07:00,38.4,32.8,30.09,West,273,4.0,9.0,80,0.00,,---,0.00,0.00,VWS V14.01,2013-02-16 00:07:00,
2013-02-15 19:12:00,37.9,32.3,30.10,NW,310,6.0,10.0,80,0.00,,---,0.00,0.00,VWS V14.01,2013-02-16 00:12:00,
2013-02-15 19:18:00,37.6,32.3,30.10,NW,305,5.0,10.0,81,0.00,,---,0.00,0.00,VWS V14.01,2013-02-16 00:18:00,
2013-02-15 19:23:00,37.1,32.1,30.11,West,263,6.0,11.0,82,0.00,,---,0.00,0.00,VWS V14.01,2013-02-16 00:23:00,
2013-02-15 19:28:00,36.9,32.2,30.11,WSW,252,2.0,11.0,83,0.00,,---,0.00,0.00,VWS V14.01,2013-02-16 00:28:00,
2013-02-15 19:30:00,36.8,32.1,30.11,SW,231,7.0,11.0,83,0.00,,---,0.00,0.00,VWS V14.01,2013-02-16 00:30:00,
2013-02-15 19:33:00,36.7,32.0,30.11,WSW,257,5.0,7.0,83,0.00,,---,0.00,0.00,VWS V14.01,2013-02-16 00:33:00,
2013-02-15 19:38:00,36.5,33.6,30.12,WNW,299,0.0,7.0,89,0.00,,---,0.00,0.00,VWS V14.01,2013-02-16 00:38:00,
2013-02-15 19:43:00,36.4,32.0,30.11,WNW,299,0.0,7.0,84,0.00,,---,0.00,0.00,VWS V14.01,2013-02-16 00:43:00,
2013-02-15 19:48:00,36.2,31.8,30.11,WNW,294,3.0,9.0,84,0.00,,---,0.00,0.00,VWS V14.01,2013-02-16 00:48:00,
2013-02-15 19:53:00,36.0,31.6,30.11,WNW,299,3.0,12.0,84,0.00,,---,0.00,0.00,VWS V14.01,2013-02-16 00:53:00,
2013-02-15 19:58:00,35.8,31.5,30.11,NNW,339,4.0,12.0,84,0.00,,---,0.00,0.00,VWS V14.01,2013-02-16 00:58:00,
2013-02-15 20:00:00,35.6,31.0,30.11,NW,315,3.0,12.0,83,0.00,,---,0.00,0.00,VWS V14.01,2013-02-16 01:00:00,
2013-02-15 20:03:00,35.6,31.0,30.11,WNW,284,0.0,3.0,83,0.00,,---,0.00,0.00,VWS V14.01,2013-02-16 01:03:00,
2013-02-15 20:08:00,35.5,30.6,30.11,West,275,0.0,7.0,82,0.00,,---,0.00,0.00,VWS V14.01,2013-02-16 01:08:00,
2013-02-15 20:14:00,35.4,30.5,30.12,West,263,2.0,7.0,82,0.00,,---,0.00,0.00,VWS V14.01,2013-02-16 01:14:00,
2013-02-15 20:19:00,35.3,30.4,30.12,WNW,288,3.0,7.0,82,0.00,,---,0.00,0.00,VWS V14.01,2013-02-16 01:19:00,
2013-02-15 20:24:00,35.2,30.3,30.12,WSW,256,0.0,9.0,82,0.00,,---,0.00,0.00,VWS V14.01,2013-02-16 01:24:00,
2013-02-15 20:29:00,35.2,30.3,30.12,West,278,4.0,9.0,82,0.00,,---,0.00,0.00,VWS V14.01,2013-02-16 01:29:00,
2013-02-15 20:30:00,35.1,30.2,30.12,NW,308,0.0,9.0,82,0.00,,---,0.00,0.00,VWS V14.01,2013-02-16 01:30:00,
2013-02-15 20:34:00,35.1,30.2,30.12,WNW,303,0.0,6.0,82,0.00,,---,0.00,0.00,VWS V14.01,2013-02-16 01:34:00,
2013-02-15 20:39:00,35.0,30.1,30.12,NNW,335,3.0,6.0,82,0.00,,---,0.00,0.00,VWS V14.01,2013-02-16 01:39:00,
2013-02-15 20:44:00,34.9,30.0,30.12,WNW,294,0.0,6.0,82,0.00,,---,0.00,0.00,VWS V14.01,2013-02-16 01:44:00,
2013-02-15 20:49:00,34.8,30.2,30.12,WNW,295,3.0,7.0,83,0.00,,---,0.00,0.00,VWS V14.01,2013-02-16 01:49:00,
2013-02-15 20:54:00,34.6,30.0,30.12,WNW,284,0.0,7.0,83,0.00,,---,0.00,0.00,VWS V14.01,2013-02-16 01:54:00,
2013-02-15 20:59:00,34.5,29.9,30.12,NW,313,0.0,7.0,83,0.00,,---,0.00,0.00,VWS V14.01,2013-02-16 01:59:00,
2013-02-15 21:00:00,34.4,30.1,30.12,NW,313,0.0,7.0,84,0.00,,---,0.00,0.00,VWS V14.01,2013-02-16 02:00:00,
2013-02-15 21:05:00,34.4,30.1,30.12,WNW,301,0.0,7.0,84,0.00,,---,0.00,0.00,VWS V14.01,2013-02-16 02:05:00,
2013-02-15 21:10:00,34.3,30.0,30.12,WSW,257,0.0,7.0,84,0.00,,---,0.00,0.00,VWS V14.01,2013-02-16 02:10:00,
2013-02-15 21:15:00,34.2,29.9,30.12,NW,312,3.0,7.0,84,0.00,,---,0.00,0.00,VWS V14.01,2013-02-16 02:15:00,
2013-02-15 21:20:00,34.1,29.8,30.12,WNW,302,0.0,7.0,84,0.00,,---,0.00,0.00,VWS V14.01,2013-02-16 02:20:00,
2013-02-15 21:25:00,34.0,29.7,30.12,WNW,294,0.0,7.0,84,0.00,,---,0.00,0.00,VWS V14.01,2013-02-16 02:25:00,
2013-02-15 21:30:00,34.0,29.7,30.11,NW,309,0.0,7.0,84,0.00,,---,0.00,0.00,VWS V14.01,2013-02-16 02:30:00,
2013-02-15 21:35:00,33.9,29.6,30.11,NW,309,0.0,3.0,84,0.00,,---,0.00,0.00,VWS V14.01,2013-02-16 02:35:00,
2013-02-15 21:40:00,33.9,29.9,30.12,NW,309,0.0,3.0,85,0.00,,---,0.00,0.00,VWS V14.01,2013-02-16 02:40:00,
2013-02-15 21:45:00,33.9,29.9,30.12,NW,309,0.0,3.0,85,0.00,,---,0.00,0.00,VWS V14.01,2013-02-16 02:45:00,
2013-02-15 21:51:00,33.8,29.8,30.12,WSW,258,3.0,6.0,85,0.00,,---,0.00,0.00,VWS V14.01,2013-02-16 02:51:00,
2013-02-15 21:56:00,33.8,29.8,30.12,WNW,303,5.0,6.0,85,0.00,,---,0.00,0.00,VWS V14.01,2013-02-16 02:56:00,
2013-02-15 22:00:00,33.8,29.8,30.12,West,277,4.0,6.0,85,0.00,,---,0.00,0.00,VWS V14.01,2013-02-16 03:00:00,
2013-02-15 22:01:00,33.8,29.8,30.12,WNW,297,0.0,6.0,85,0.00,,---,0.00,0.00,VWS V14.01,2013-02-16 03:01:00,
2013-02-15 22:06:00,33.8,29.8,30.12,WNW,301,0.0,4.0,85,0.00,,---,0.00,0.00,VWS V14.01,2013-02-16 03:06:00,
2013-02-15 22:11:00,33.8,30.1,30.12,WNW,298,2.0,4.0,86,0.00,,---,0.00,0.00,VWS V14.01,2013-02-16 03:11:00,
2013-02-15 22:16:00,33.7,30.0,30.11,WNW,302,2.0,9.0,86,0.00,,---,0.00,0.00,VWS V14.01,2013-02-16 03:16:00,
2013-02-15 22:21:00,33.6,29.9,30.11,WNW,291,0.0,9.0,86,0.00,,---,0.00,0.00,VWS V14.01,2013-02-16 03:21:00,
2013-02-15 22:26:00,33.5,29.8,30.11,WNW,302,4.0,9.0,86,0.00,,---,0.00,0.00,VWS V14.01,2013-02-16 03:26:00,
2013-02-15 22:30:00,33.5,29.5,30.11,WNW,295,3.0,9.0,85,0.00,,---,0.00,0.00,VWS V14.01,2013-02-16 03:30:00,
2013-02-15 22:32:00,33.5,29.5,30.11,West,280,1.0,9.0,85,0.00,,---,0.00,0.00,VWS V14.01,2013-02-16 03:32:00,
2013-02-15 22:37:00,33.5,29.5,30.11,NW,319,2.0,4.0,85,0.00,,---,0.00,0.00,VWS V14.01,2013-02-16 03:37:00,
2013-02-15 22:42:00,33.4,29.4,30.11,West,263,0.0,5.0,85,0.00,,---,0.00,0.00,VWS V14.01,2013-02-16 03:42:00,
2013-02-15 22:47:00,33.3,29.0,30.11,NW,314,4.0,9.0,84,0.00,,---,0.00,0.00,VWS V14.01,2013-02-16 03:47:00,
2013-02-15 22:52:00,33.3,29.0,30.11,NW,309,4.0,9.0,84,0.00,,---,0.00,0.00,VWS V14.01,2013-02-16 03:52:00,
2013-02-15 22:57:00,33.3,29.0,30.11,West,279,3.0,9.0,84,0.00,,---,0.00,0.00,VWS V14.01,2013-02-16 03:57:00,
2013-02-15 23:00:00,33.2,28.6,30.10,NW,308,3.0,9.0,83,0.00,,---,0.00,0.00,VWS V14.01,2013-02-16 04:00:00,
2013-02-15 23:02:00,33.2,28.6,30.10,NW,308,0.0,3.0,83,0.00,,---,0.00,0.00,VWS V14.01,2013-02-16 04:02:00,
2013-02-15 23:07:00,33.2,28.9,30.10,NNW,340,5.0,6.0,84,0.00,,---,0.00,0.00,VWS V14.01,2013-02-16 04:07:00,
2013-02-15 23:12:00,33.1,28.8,30.10,NW,312,2.0,6.0,84,0.00,,---,0.00,0.00,VWS V14.01,2013-02-16 04:12:00,
2013-02-15 23:17:00,33.2,28.9,30.11,WNW,289,0.0,6.0,84,0.00,,---,0.00,0.00,VWS V14.01,2013-02-16 04:17:00,
2013-02-15 23:22:00,33.1,28.8,30.10,West,263,0.0,6.0,84,0.00,,---,0.00,0.00,VWS V14.01,2013-02-16 04:22:00,
2013-02-15 23:27:00,33.0,28.7,30.10,WNW,288,6.0,7.0,84,0.00,,---,0.00,0.00,VWS V14.01,2013-02-16 04:27:00,
2013-02-15 23:30:00,32.9,28.6,30.10,West,277,4.0,7.0,84,0.00,,---,0.00,0.00,VWS V14.01,2013-02-16 04:30:00,
2013-02-15 23:33:00,32.9,28.6,30.10,WNW,291,1.0,4.0,84,0.00,,---,0.00,0.00,VWS V14.01,2013-02-16 04:33:00,
2013-02-15 23:38:00,32.8,28.5,30.10,West,274,0.0,7.0,84,0.00,,---,0.00,0.00,VWS V14.01,2013-02-16 04:38:00,
2013-02-15 23:43:00,32.6,28.0,30.09,WNW,300,1.0,7.0,83,0.00,,---,0.00,0.00,VWS V14.01,2013-02-16 04:43:00,
2013-02-15 23:48:00,32.5,27.9,30.09,WNW,289,2.0,7.0,83,0.00,,---,0.00,0.00,VWS V14.01,2013-02-16 04:48:00,
2013-02-15 23:53:00,32.3,27.7,30.09,WNW,288,3.0,7.0,83,0.00,,---,0.00,0.00,VWS V14.01,2013-02-16 04:53:00,
2013-02-15 23:58:00,32.1,27.5,30.09,WNW,300,3.0,7.0,83,0.00,,---,0.00,0.00,VWS V14.01,2013-02-16 04:58:00,